When you browse on this site, cookies collect data to enhance your experience and personalize the content and advertising you see.
Visit our Privacy Policy to learn more. By continuing to use the site, you agree to this use of cookies and data.
  • In Spain
  • List of Countries
  • For 7 days
  • Water Temperature
  • Satellite Maps
  • Weather Map
  • Weather Widgets
  • user-avatar
    Login

    Hourly Weather Hmelevec-Kryukovo

    Today, 22 March, Friday

    Time Temperature Precipitation Wind Pressure Humidity
    00:00 -3°C° 0 mm 2 mps 745 mmHg 93%
    01:00 -3°C° 0 mm 2 mps 745 mmHg 93%
    02:00 -3°C° 0 mm 2 mps 745 mmHg 93%
    03:00 -3°C° 0 mm 2 mps 744 mmHg 92%
    04:00 -3°C° 0 mm 2 mps 744 mmHg 92%
    05:00 -4°C° 0 mm 3 mps 743 mmHg 92%
    06:00 -4°C° 0 mm 3 mps 743 mmHg 91%
    07:00 -3°C° 0.1 mm 4 mps 742 mmHg 91%
    08:00 -2°C° 0.1 mm 5 mps 741 mmHg 90%
    09:00 -2°C° 0 mm 6 mps 740 mmHg 89%
    10:00 -2°C° 0.8 mm 6 mps 739 mmHg 90%
    11:00 -2°C° 0.8 mm 7 mps 738 mmHg 92%
    12:00 -1°C° 0.8 mm 7 mps 736 mmHg 93%
    13:00 -1°C° 0.7 mm 7 mps 736 mmHg 94%
    14:00 -1°C° 0.7 mm 7 mps 736 mmHg 94%
    15:00 -1°C° 0.7 mm 7 mps 736 mmHg 94%
    16:00 -1°C° 0.4 mm 7 mps 736 mmHg 90%
    17:00 -1°C° 0.4 mm 8 mps 736 mmHg 86%
    18:00 -2°C° 0.4 mm 8 mps 736 mmHg 82%
    19:00 -2°C° 0.1 mm 8 mps 737 mmHg 82%
    20:00 -3°C° 0.1 mm 7 mps 737 mmHg 82%
    21:00 -3°C° 0.1 mm 7 mps 737 mmHg 82%
    22:00 -4°C° 0.1 mm 7 mps 738 mmHg 83%
    23:00 -4°C° 0.1 mm 7 mps 738 mmHg 84%

    Tomorrow, 23 March, Saturday

    Time Temperature Precipitation Wind Pressure Humidity
    00:00 -4°C° 0.1 mm 7 mps 738 mmHg 86%
    01:00 -3°C° 0.1 mm 7 mps 738 mmHg 86%
    02:00 -3°C° 0.1 mm 7 mps 738 mmHg 87%
    03:00 -3°C° 0.1 mm 7 mps 738 mmHg 87%
    04:00 -3°C° 0.2 mm 7 mps 739 mmHg 88%
    05:00 -3°C° 0.2 mm 7 mps 739 mmHg 90%
    06:00 -3°C° 0.2 mm 6 mps 740 mmHg 91%
    07:00 -3°C° 0 mm 6 mps 741 mmHg 90%
    08:00 -3°C° 0 mm 6 mps 742 mmHg 90%
    09:00 -3°C° 0 mm 6 mps 743 mmHg 89%
    10:00 -3°C° 0 mm 6 mps 744 mmHg 89%
    11:00 -3°C° 0 mm 6 mps 745 mmHg 88%
    12:00 -3°C° 0 mm 6 mps 745 mmHg 87%
    13:00 -3°C° 0 mm 6 mps 745 mmHg 87%
    14:00 -2°C° 0 mm 5 mps 746 mmHg 86%
    15:00 -2°C° 0 mm 5 mps 746 mmHg 86%
    16:00 -2°C° 0 mm 4 mps 746 mmHg 86%
    17:00 -2°C° 0 mm 4 mps 746 mmHg 86%
    18:00 -1°C° 0 mm 3 mps 746 mmHg 87%
    19:00 -1°C° 0 mm 2 mps 746 mmHg 88%
    20:00 -1°C° 0 mm 2 mps 747 mmHg 89%
    21:00 -2°C° 0 mm 2 mps 747 mmHg 90%
    22:00 0°C° 0 mm 1 mps 747 mmHg 89%
    23:00 0°C° 0 mm 1 mps 747 mmHg 88%

    Day after tomorrow, 24 March, Sunday

    Time Temperature Precipitation Wind Pressure Humidity
    00:00 0°C° 0 mm 1 mps 746 mmHg 87%
    01:00 0°C° 0 mm 1 mps 746 mmHg 86%
    02:00 -1°C° 0 mm 1 mps 746 mmHg 85%
    03:00 -1°C° 0 mm 1 mps 745 mmHg 85%
    04:00 -3°C° 0 mm 2 mps 745 mmHg 86%
    05:00 -4°C° 0 mm 2 mps 744 mmHg 87%
    06:00 -4°C° 0 mm 2 mps 744 mmHg 88%
    07:00 -4°C° 0 mm 3 mps 743 mmHg 87%
    08:00 -2°C° 0 mm 3 mps 743 mmHg 87%
    09:00 -3°C° 0 mm 4 mps 742 mmHg 87%
    10:00 -2°C° 0.1 mm 4 mps 742 mmHg 88%
    11:00 -2°C° 0.1 mm 5 mps 741 mmHg 89%
    12:00 -1°C° 0.1 mm 5 mps 741 mmHg 90%
    13:00 -1°C° 0.2 mm 5 mps 740 mmHg 91%
    14:00 -1°C° 0.2 mm 5 mps 740 mmHg 91%
    15:00 -1°C° 0.2 mm 5 mps 739 mmHg 92%
    16:00 -1°C° 0.1 mm 4 mps 739 mmHg 92%
    17:00 -1°C° 0.1 mm 4 mps 739 mmHg 93%
    18:00 0°C° 0.1 mm 3 mps 739 mmHg 93%
    19:00 0°C° 0 mm 3 mps 739 mmHg 93%
    20:00 0°C° 0 mm 3 mps 739 mmHg 92%
    21:00 -1°C° 0 mm 3 mps 739 mmHg 91%
    22:00 -1°C° 0 mm 3 mps 739 mmHg 90%
    23:00 -1°C° 0 mm 3 mps 739 mmHg 89%

    25 March, Monday

    Time Temperature Precipitation Wind Pressure Humidity
    00:00 -2°C° 0 mm 3 mps 739 mmHg 88%
    01:00 -2°C° 0 mm 3 mps 739 mmHg 88%
    02:00 -2°C° 0 mm 3 mps 739 mmHg 87%
    03:00 -3°C° 0 mm 2 mps 739 mmHg 86%
    04:00 -3°C° 0 mm 2 mps 739 mmHg 86%
    05:00 -3°C° 0 mm 2 mps 739 mmHg 85%
    06:00 -3°C° 0 mm 2 mps 739 mmHg 85%
    07:00 -2°C° 0 mm 3 mps 739 mmHg 83%
    08:00 -2°C° 0 mm 3 mps 739 mmHg 80%
    09:00 -1°C° 0 mm 3 mps 739 mmHg 78%
    10:00 0°C° 0 mm 3 mps 739 mmHg 75%
    11:00 0°C° 0 mm 4 mps 738 mmHg 73%
    12:00 +1°C° 0 mm 4 mps 738 mmHg 70%
    13:00 +1°C° 0 mm 4 mps 738 mmHg 69%
    14:00 +3°C° 0 mm 3 mps 738 mmHg 67%
    15:00 +3°C° 0 mm 3 mps 738 mmHg 65%
    16:00 +2°C° 0 mm 3 mps 738 mmHg 68%
    17:00 +3°C° 0 mm 2 mps 738 mmHg 71%
    18:00 +2°C° 0 mm 2 mps 738 mmHg 74%
    19:00 +1°C° 0 mm 2 mps 738 mmHg 76%
    20:00 +1°C° 0 mm 2 mps 739 mmHg 78%
    21:00 -1°C° 0 mm 2 mps 739 mmHg 79%
    22:00 -1°C° 0 mm 2 mps 739 mmHg 80%
    23:00 -1°C° 0 mm 2 mps 739 mmHg 80%

    26 March, Tuesday

    Time Temperature Precipitation Wind Pressure Humidity
    00:00 -1°C° 0 mm 2 mps 739 mmHg 81%
    01:00 -1°C° 0 mm 2 mps 739 mmHg 80%
    02:00 -2°C° 0 mm 2 mps 739 mmHg 80%
    03:00 -2°C° 0 mm 2 mps 740 mmHg 80%
    04:00 -2°C° 0 mm 2 mps 740 mmHg 81%
    05:00 -2°C° 0 mm 2 mps 740 mmHg 82%
    06:00 -2°C° 0 mm 2 mps 740 mmHg 83%
    07:00 -1°C° 0 mm 2 mps 740 mmHg 81%
    08:00 -1°C° 0 mm 2 mps 740 mmHg 80%
    09:00 +1°C° 0 mm 2 mps 740 mmHg 78%
    10:00 +2°C° 0 mm 2 mps 741 mmHg 75%
    11:00 +3°C° 0 mm 2 mps 741 mmHg 71%
    12:00 +3°C° 0 mm 3 mps 741 mmHg 67%
    13:00 +3°C° 0.2 mm 3 mps 741 mmHg 67%
    14:00 +3°C° 0.2 mm 4 mps 741 mmHg 66%
    15:00 +3°C° 0.2 mm 5 mps 741 mmHg 65%
    16:00 +1°C° 0.1 mm 4 mps 741 mmHg 69%
    17:00 0°C° 0.1 mm 4 mps 741 mmHg 73%
    18:00 -1°C° 0.1 mm 4 mps 741 mmHg 77%
    19:00 -1°C° 0 mm 3 mps 742 mmHg 78%
    20:00 -2°C° 0 mm 3 mps 743 mmHg 78%
    21:00 -2°C° 0 mm 3 mps 743 mmHg 78%
    22:00 -4°C° 0 mm 3 mps 744 mmHg 78%
    23:00 -4°C° 0 mm 3 mps 744 mmHg 78%

    27 March, Wednesday

    Time Temperature Precipitation Wind Pressure Humidity
    00:00 -4°C° 0 mm 3 mps 744 mmHg 77%
    01:00 -4°C° 0 mm 3 mps 744 mmHg 77%
    02:00 -4°C° 0 mm 3 mps 745 mmHg 77%
    03:00 -4°C° 0 mm 3 mps 745 mmHg 77%
    04:00 -4°C° 0 mm 3 mps 745 mmHg 76%
    05:00 -4°C° 0 mm 3 mps 745 mmHg 75%
    06:00 -4°C° 0 mm 4 mps 745 mmHg 74%
    07:00 -3°C° 0 mm 4 mps 745 mmHg 69%
    08:00 -2°C° 0 mm 5 mps 745 mmHg 63%
    09:00 -2°C° 0 mm 6 mps 745 mmHg 57%
    10:00 -1°C° 0 mm 6 mps 745 mmHg 54%
    11:00 +1°C° 0 mm 6 mps 745 mmHg 52%
    12:00 +1°C° 0 mm 6 mps 745 mmHg 49%
    13:00 +2°C° 0 mm 6 mps 745 mmHg 50%
    14:00 +3°C° 0 mm 6 mps 745 mmHg 51%
    15:00 +3°C° 0 mm 7 mps 745 mmHg 53%
    16:00 +3°C° 0 mm 6 mps 745 mmHg 58%
    17:00 +2°C° 0 mm 5 mps 745 mmHg 63%
    18:00 +1°C° 0 mm 4 mps 745 mmHg 68%
    19:00 +1°C° 0 mm 5 mps 745 mmHg 72%
    20:00 0°C° 0 mm 5 mps 745 mmHg 77%
    21:00 -1°C° 0 mm 5 mps 745 mmHg 81%
    22:00 -1°C° 0 mm 5 mps 745 mmHg 81%
    23:00 -1°C° 0 mm 5 mps 745 mmHg 81%
    Show more